Lexington Weather

Lexington, Massachusetts, USA

40°F
3/30/2020 9:20am 
  • Lexington Conditions: Mist, Overcast
  • Temperature: 39.9°F / 4.4°CWarmer 0.5°F than last hour.
  • Dew Point: 39.2°FIncreased 0.5°Fsince last hour.
  • Relative Humidity: 97
  • Wind: Wind from NNE NNE 4 mph, 10-min avg: 3 mph, gust: 5 mph
  • Barometer: 29.97 in Steady
  • Visibility: 2 miles
  • Rain Today: 0.02 in
  •   

Regional Weather Roundup
for Boston / Norton, MA

        
000
ASUS41 KBOX 300804
RWRBOX

REGIONAL WEATHER ROUNDUP
NATIONAL WEATHER SERVICE BOSTON/NORTON MA
400 AM EDT MON MAR 30 2020

NOTE:  "FAIR" INDICATES FEW OR NO CLOUDS BELOW 12,000 FEET WITH NO 
SIGNIFICANT WEATHER AND/OR OBSTRUCTIONS TO VISIBILITY.

MAZALL-300900-
EASTERN MASSACHUSETTS
  
CITY           SKY/WX    TMP DP  RH WIND       PRES   REMARKS
BOSTON         DRIZZLE   40  38  93 N15       29.97R FOG     WCI  32  
BEVERLY        CLOUDY    41  38  89 NE12G17   29.97R FOG              
LAWRENCE       CLOUDY    39  38  96 N12       30.01R FOG     WCI  32  
BEDFORD        CLOUDY    40  38  93 N13       29.97S FOG              
BLUE HILL        N/A     38  38 100 N15G26    29.91S WCI  29          
NORWOOD        CLOUDY    42  38  85 N10       29.94F FOG              
MARSHFIELD     CLOUDY    43  43 100 NE8G16    29.92R FOG              
PLYMOUTH       LGT RAIN  42  41  96 N14G24      N/A  FOG              
TAUNTON        CLOUDY    41  39  93 MISG      29.90F FOG              
NEW BEDFORD    CLOUDY    40  40 100 N13G20    29.87F FOG              
$$

MAZALL-300900-
CAPE COD AND THE ISLANDS
  
CITY           SKY/WX    TMP DP  RH WIND       PRES   REMARKS
FALMOUTH       CLOUDY    43  43 100 N12G20    29.85F FOG              
HYANNIS        CLOUDY    45  42  89 NE10      29.82F FOG              
CHATHAM        CLOUDY    44  42  93 NE9       29.84F FOG              
PROVINCETOWN   CLOUDY    42  42 100 NE16      29.90R FOG              
NANTUCKET      CLOUDY    45  44  97 N15       29.78F FOG              
MARTHAS VNYRD  CLOUDY    44  42  93 N14       29.83F FOG              
$$
 
MAZALL-300900-
CENTRAL AND WESTERN MASSACHUSETTS
  
CITY           SKY/WX    TMP DP  RH WIND       PRES   REMARKS
WORCESTER      CLOUDY    36  34  92 N13G22    29.95R FOG     WCI  27  
FITCHBURG      CLOUDY    38  35  89 N9        30.01R FOG     WCI  31  
ORANGE         CLOUDY    38  35  89 N6        30.00R                  
SPRINGFIELD    CLOUDY    38  37  95 NE7       29.97S                  
WESTFIELD      CLOUDY    38  35  89 N13       29.98S WCI  30          
NORTH ADAMS    CLOUDY    39  33  79 E12       29.95F WCI  32          
PITTSFIELD     CLOUDY    37  32  82 NE10      29.92S WCI  30          
$$
 
RIZALL-300900-
RHODE ISLAND
  
CITY           SKY/WX    TMP DP  RH WIND       PRES   REMARKS
PROVIDENCE     CLOUDY    41  40  96 N17       29.92S                  
NEWPORT        CLOUDY    42  39  89 N15G23    29.88F FOG              
BLOCK ISLAND   CLOUDY    41  40  96 N16G22    29.90R                  
SMITHFIELD     CLOUDY    39  39 100 NE15      29.92F WCI  31          
WESTERLY       CLOUDY    44  38  79 NE8       29.91S                  
$$
 
CTZALL-300900-
CONNECTICUT
  
CITY           SKY/WX    TMP DP  RH WIND       PRES   REMARKS
BRADLEY INTL   CLOUDY    39  36  89 N14       29.98R WCI  31          
HARTFORD       CLOUDY    41  37  86 N15G21    29.98R                  
BRIDGEPORT     CLOUDY    42  38  85 NE12      29.94R                  
DANBURY        CLOUDY    40  37  89 N6        29.96R                  
GROTON         CLOUDY    40  40 100 N8        29.93R                  
NEW HAVEN      CLOUDY    42  38  85 N17       29.93R                  
CHESTER        CLOUDY    41  39  93 N12G20    29.93R                  
MERIDEN        CLOUDY    40  36  86 N10G20    29.95R                  
WILLIMANTIC    CLOUDY    40  37  89 N8        29.95R                  
OXFORD         CLOUDY    38  36  92 N14G20    29.93S WCI  30          
$$

MEZ002-015-021-024-NHZ003-005-008-011-012-014-VTZ005-008-300900-
NORTHERN NEW ENGLAND
  
CITY           SKY/WX    TMP DP  RH WIND       PRES   REMARKS
PORTLAND ME    MIX PCPN  37  34  89 N8        30.06S FOG     WCI  31  
BANGOR ME      CLOUDY    34  31  88 E9        30.12S WCI  27          
CONCORD NH     CLOUDY    35  33  92 NE6       30.04S FOG     WCI  30  
MANCHESTER NH  CLOUDY    38  35  89 N10       30.02R FOG     WCI  31  
NASHUA NH      MIX PCPN  37  37 100 N9        30.03R FOG     WCI  30  
PORTSMOUTH NH  DRIZZLE   39  38  96 N8        30.01R FOG              
JAFFREY NH     CLOUDY    35  34  96 VRB5      29.98S FOG     WCI  31  
KEENE NH       CLOUDY    36  34  92 VRB3      30.00F                  
BURLINGTON VT  FAIR      38  34  85 SW3       29.89F                  
MT. WASHINGTON FOG       25  25 100 S20         N/A  VSB 1/16WCI  11  
$$

NYZ052-076-300900-
EASTERN NEW YORK
  
CITY           SKY/WX    TMP DP  RH WIND       PRES   REMARKS
ALBANY         CLOUDY    43  39  86 SW7       29.93R                  
NEW YORK CITY  CLOUDY    46  41  82 NE9       29.95R                  
$$
 
ANZALL-300900-
MARINE OBSERVATIONS
  
STATION/POSITION TIME  TEMP    WIND        PRES    VSBY  WAVE
                       AIR SEA DIR/SP/G                  HT/PER
                 (UTC) (F)     (DEG/KT/KT) (MB)    (MI)  (FT/S)
BOSTON BUOY      0750   42 42   40/ 16/ 19 1013.0R         7/ 7
BUZZARDS BAY     0700           10/ 19/ 20 1012.2R
NANTUCKET SOUND  0740                        N/A           2/ 4
MASS BAY-STELLWA 0704   41 42   80/ 17/ 23 1011.6F  1 7/8  8/ 8
ISLE OF SHOALS   0700   40      50/ 20/ 22 1014.9F
S OF BLOCK IS    0730      44                N/A           8/ 9
$$

......................KEY.........................
  SKY/WX - SKY CONDITION/PRESENT WEATHER
  TMP    - TEMPERATURE IN FAHRENHEIT
  DWPT   - DEWPOINT IN FAHRENHEIT
  RH     - RELATIVE HUMIDITY IN PERCENT
  WIND   - DIRECTION AND SPEED IN MPH
  PRES   - MEAN SEA LEVEL PRESSURE IN INCHES OF HG
  WCI    - WIND CHILL INDEX
  VSB    - VISIBILITY IN MILES
  HX     - HEAT INDEX
  TC     - TEMPERATURE IN CELSIUS
  VRB    - VARIABLE WIND DIRECTION
  N/A    - NOT AVAILABLE
  
      

Other recent Regional Weather Roundups

Mon Mar 30, 9:04am

Mon Mar 30, 8:04am

Mon Mar 30, 7:04am

Mon Mar 30, 6:04am

Mon Mar 30, 5:04am

Mon Mar 30, 3:05am

Mon Mar 30, 2:04am

Mon Mar 30, 1:04am

Mon Mar 30, 12:04am

Sun Mar 29, 11:04pm

Sun Mar 29, 10:05pm

Sun Mar 29, 9:04pm

Sun Mar 29, 8:04pm

Sun Mar 29, 7:04pm

Sun Mar 29, 6:04pm

Sun Mar 29, 5:05pm

Sun Mar 29, 4:04pm

Sun Mar 29, 3:04pm

Sun Mar 29, 2:04pm

Sun Mar 29, 1:05pm

Sun Mar 29, 12:04pm

Sun Mar 29, 11:04am

Sun Mar 29, 10:04am

Sun Mar 29, 9:04am

Sun Mar 29, 8:04am

Sun Mar 29, 7:04am

Sun Mar 29, 6:04am

Sun Mar 29, 5:04am

Sun Mar 29, 4:04am

Sun Mar 29, 3:04am

Sun Mar 29, 2:04am

Sun Mar 29, 1:04am

Sun Mar 29, 12:04am

Sat Mar 28, 11:05pm

Sat Mar 28, 10:04pm

Sat Mar 28, 9:04pm

Sat Mar 28, 8:04pm

Sat Mar 28, 7:04pm

Sat Mar 28, 6:04pm

Sat Mar 28, 5:05pm

Sat Mar 28, 4:04pm

Sat Mar 28, 3:04pm

Sat Mar 28, 2:04pm

Sat Mar 28, 1:05pm

Sat Mar 28, 12:04pm

Sat Mar 28, 11:04am

Sat Mar 28, 10:04am

Sat Mar 28, 9:04am

Sat Mar 28, 8:04am

Sat Mar 28, 7:04am

Sat Mar 28, 6:04am

Sat Mar 28, 5:04am

Sat Mar 28, 4:04am

Sat Mar 28, 3:04am

Sat Mar 28, 2:04am

Sat Mar 28, 1:04am

Sat Mar 28, 12:04am

Fri Mar 27, 11:04pm

Fri Mar 27, 10:04pm

Fri Mar 27, 9:04pm

Fri Mar 27, 8:04pm

Fri Mar 27, 7:05pm

Fri Mar 27, 6:04pm

Fri Mar 27, 5:05pm

Fri Mar 27, 4:05pm

Fri Mar 27, 3:04pm

Fri Mar 27, 2:05pm

Fri Mar 27, 1:04pm

Fri Mar 27, 12:04pm

Fri Mar 27, 11:04am

Fri Mar 27, 10:04am

Meta data:

ID: 8f32650d-38b6-4cd4-9798-752e6a25f76e
Link: https://api.weather.gov/products/8f32650d-38b6-4cd4-9798-752e6a25f76e